Wilmington, OH

12:11 PM EST on December 16, 2017 (GMT -0500)
Airborne

Weather History for KILN - August, 2013

Change the Weather History Date:

Friday, August 2, 2013

  Actual Average (KFFO) Record (KFFO)
Temperature  
Mean Temperature 68 °F -  
Max Temperature 82 °F 82 °F 95 °F (2005)
Min Temperature 55 °F 61 °F 53 °F (1998)
Cooling Degree Days 3    
Growing Degree Days 18 (Base 50)    
Moisture  
Dew Point 60 °F    
Average Humidity 73    
Maximum Humidity 97    
Minimum Humidity 50    
Precipitation  
Precipitation 0.00 in - - ()
Sea Level Pressure  
Sea Level Pressure 29.98 in    
Wind  
Wind Speed 3 mph (SSW)    
Max Wind Speed 14 mph    
Max Gust Speed 18 mph    
Visibility 10 miles    
Events      
Averages and records for this station are not official NWS values.
T = Trace of Precipitation, MM = Missing Value Source: NWS Daily Summary

Daily Weather History Graph

Daily Weather History Graph

Search for Another Location

Airport or City:

Trip Planner

Search our weather history database for the weather conditions in past years. The results will help you decide how hot, cold, wet, or windy it might be!

Date:

Astronomy

Aug. 02, 2013 Rise Set
Actual Time 6:36 AM EDT 8:46 PM EDT
Civil Twilight 6:06 AM EDT 9:15 PM EDT
Nautical Twilight 5:29 AM EDT 9:52 PM EDT
Astronomical Twilight 4:49 AM EDT 10:32 PM EDT
Moon 2:56 AM EDT (8/2) 5:42 PM EDT (8/2)
Length of Visible Light 15h 09m
Length of Day
14h 10m
Waning Crescent, 16% of the Moon is Illuminated
Aug 2
Waning Crescent
Aug 6
New
Aug 14
First Quarter
Aug 20
Full
Aug 28
Last Quarter

Hourly Weather History & Observations

Time (EDT) Temp. Heat Index Dew Point Humidity Pressure Visibility Wind Dir Wind Speed Gust Speed Precip Events Conditions
12:54 AM 61.0 °F - 57.9 °F 90% 29.97 in 10.0 mi Calm Calm - N/A   Clear
1:54 AM 59.0 °F - 57.0 °F 93% 29.98 in 10.0 mi Calm Calm - N/A   Clear
2:54 AM 57.9 °F - 57.0 °F 97% 29.96 in 9.0 mi Calm Calm - N/A   Clear
3:54 AM 57.9 °F - 55.9 °F 93% 29.97 in 10.0 mi Calm Calm - N/A   Clear
4:54 AM 57.0 °F - 55.9 °F 96% 29.97 in 10.0 mi Calm Calm - N/A   Clear
5:54 AM 57.0 °F - 55.9 °F 96% 29.99 in 9.0 mi Calm Calm - N/A   Clear
6:54 AM 55.9 °F - 54.0 °F 93% 30.01 in 6.0 mi Calm Calm - N/A   Clear
7:54 AM 62.1 °F - 57.9 °F 86% 30.00 in 7.0 mi Calm Calm - N/A   Clear
8:54 AM 66.0 °F - 60.1 °F 81% 30.00 in 10.0 mi Calm Calm - N/A   Clear
10:54 AM 73.9 °F - 62.1 °F 66% 30.00 in 10.0 mi South 4.6 mph - N/A   Clear
11:54 AM 75.9 °F - 57.9 °F 54% 30.01 in 10.0 mi SW 6.9 mph - N/A   Clear
12:54 PM 77.0 °F - 57.0 °F 50% 30.01 in 10.0 mi SW 9.2 mph - N/A   Clear
1:54 PM 79.0 °F - 59.0 °F 50% 30.01 in 10.0 mi SSW 9.2 mph - N/A   Clear
2:54 PM 81.0 °F 81.9 °F 62.1 °F 52% 30.01 in 10.0 mi SSW 13.8 mph - N/A   Partly Cloudy
3:54 PM 81.0 °F 81.7 °F 61.0 °F 50% 29.99 in 10.0 mi SSW 12.7 mph 18.4 mph N/A   Clear
4:54 PM 79.0 °F - 61.0 °F 54% 29.99 in 10.0 mi SSW 10.4 mph - N/A   Clear
5:54 PM 80.1 °F 81.2 °F 62.1 °F 54% 29.97 in 10.0 mi SSW 11.5 mph - N/A   Clear
6:54 PM 77.0 °F - 62.1 °F 60% 29.96 in 10.0 mi SSW 12.7 mph - N/A   Clear
7:54 PM 75.0 °F - 62.1 °F 64% 29.96 in 10.0 mi SSW 10.4 mph - N/A   Clear
8:54 PM 72.0 °F - 63.0 °F 73% 29.97 in 10.0 mi SSW 5.8 mph - N/A   Overcast
9:54 PM 72.0 °F - 63.0 °F 73% 29.98 in 10.0 mi SSW 5.8 mph - N/A   Overcast
10:54 PM 71.1 °F - 64.0 °F 78% 29.96 in 10.0 mi SSW 6.9 mph - N/A   Overcast
11:54 PM 71.1 °F - 64.0 °F 78% 29.95 in 10.0 mi SSW 5.8 mph - N/A   Mostly Cloudy